Location: Avebury
(53.1487°N, 106.9774°W)
Time: 22:56:49
(UTC+00:00)

Tiros 1 despin weight - All Passes

Search period start: 28 May 2022 00:00
Search period end: 07 June 2022 00:00
Orbit: 592 x 639 km, 48.2° (Epoch: 28 May)

Date Brightness Start Highest point End Pass type
(mag) Time Alt. Az. Time Alt. Az. Time Alt. Az.
28 May - 00:16:20 10° S 00:18:50 15° SE 00:21:20 10° ESE daylight
28 May - 01:55:24 10° SW 01:59:28 34° SSE 02:03:31 10° E daylight
28 May - 03:36:14 10° WSW 03:40:29 44° S 03:44:42 10° ESE daylight
28 May - 05:17:36 10° W 05:21:26 28° SSW 05:25:13 10° SE visible
29 May - 00:30:41 10° SSW 00:34:09 22° SSE 00:37:35 10° E daylight
29 May - 02:10:45 10° WSW 02:14:59 41° S 02:19:10 10° E daylight
29 May - 03:51:50 10° W 03:56:02 40° S 04:00:11 10° ESE daylight
29 May - 05:33:31 10° WSW 05:36:49 21° SSW 05:40:06 10° SSE visible
29 May - 23:07:51 10° SSE 23:09:03 11° SE 23:10:15 10° SE daylight
30 May - 00:45:37 10° SW 00:49:33 30° SSE 00:53:27 10° E daylight
30 May - 02:26:14 10° WSW 02:30:32 45° S 02:34:46 10° ESE daylight
30 May - 04:07:30 10° W 04:11:31 33° SSW 04:15:30 10° SE visible
30 May - 05:49:51 10° WSW 05:52:07 14° SW 05:54:21 10° S visible
30 May - 23:21:19 10° S 23:24:18 17° SSE 23:27:16 10° ESE daylight
31 May - 01:00:51 10° SW 01:05:01 37° SSE 01:09:09 10° E daylight
31 May - 02:41:48 10° WSW 02:46:04 44° S 02:50:17 10° ESE daylight
31 May - 04:23:16 10° W 04:26:57 26° SSW 04:30:36 10° SSE visible
31 May - 23:35:57 10° SSW 23:39:39 25° SSE 23:43:19 10° E daylight
01 Jun - 01:16:15 10° WSW 01:20:32 43° S 01:24:47 10° ESE daylight
01 Jun - 02:57:24 10° W 03:01:35 38° SSW 03:05:42 10° SE daylight
01 Jun - 04:39:16 10° WSW 04:42:18 18° SSW 04:45:19 10° S visible
01 Jun - 22:12:19 10° S 22:14:29 13° SE 22:16:39 10° ESE daylight
01 Jun - 23:51:00 10° SW 23:55:04 33° SSE 23:59:06 10° E daylight
02 Jun - 01:31:45 10° WSW 01:36:04 45° S 01:40:20 10° ESE daylight
02 Jun - 03:13:05 10° W 03:17:03 31° SSW 03:20:57 10° SE daylight
02 Jun - 04:56:01 10° WSW 04:57:33 12° SW 04:59:04 10° SSW visible
02 Jun - 22:26:25 10° SSW 22:29:45 20° SSE 22:33:04 10° ESE daylight
03 Jun - 00:06:17 10° WSW 00:10:33 40° SSE 00:14:45 10° E daylight
03 Jun - 01:47:19 10° W 01:51:36 42° S 01:55:48 10° ESE daylight
03 Jun - 03:28:54 10° W 03:32:26 23° SSW 03:35:55 10° SSE daylight
03 Jun - 22:41:13 10° SW 22:45:07 28° SSE 22:48:59 10° E daylight
04 Jun - 00:21:44 10° WSW 00:26:04 44° S 00:30:21 10° ESE daylight
04 Jun - 02:02:57 10° W 02:07:06 36° SSW 02:11:10 10° SE daylight
04 Jun - 03:45:03 10° WSW 03:47:44 16° SW 03:50:23 10° S daylight
04 Jun - 21:17:07 10° S 21:19:53 16° SE 21:22:37 10° ESE daylight
04 Jun - 22:56:22 10° SW 23:00:34 36° SSE 23:04:42 10° E daylight
05 Jun - 00:37:15 10° WSW 00:41:35 45° S 00:45:52 10° ESE daylight
05 Jun - 02:18:40 10° W 02:22:31 28° SSW 02:26:19 10° SE daylight
05 Jun - 21:31:34 10° SSW 21:35:11 23° SSE 21:38:47 10° E daylight
05 Jun - 23:11:43 10° WSW 23:16:03 42° S 23:20:19 10° E daylight
06 Jun - 00:52:50 10° W 00:57:06 40° SSW 01:01:18 10° ESE daylight
06 Jun - 02:34:34 10° WSW 02:37:53 20° SSW 02:41:09 10° SSE daylight
06 Jun - 20:08:20 10° SSE 20:10:03 12° SE 20:11:44 10° ESE daylight
06 Jun - 21:46:31 10° SW 21:50:34 31° SSE 21:54:35 10° E daylight
06 Jun - 23:27:11 10° WSW 23:31:34 45° S 23:35:52 10° ESE daylight
